User: anonymous   Login
Location: Podia
(1.5569°N, 32.3469°E)
Time: 12:04:21
(UTC+00:00)
Language:

SL-4 R/B - Orbit

View from above orbital plane
View from above orbital plane
View from above satellite
View from above satellite

Ground track
Ground track

The orbit data is extracted from the following two-line orbital elements,

1 39679U 14021B   20227.09520162 -.00000105  00000-0  13460-4 0  9995
2 39679  51.6147 199.9072 0172104 145.3939 215.8375 15.06458923348038
Epoch (UTC): 14 August 2020 02:17:05
Eccentricity: 0.0172104
inclination: 51.6147°
perigee height: 428 km
apogee height: 666 km
right ascension of ascending node: 199.9072°
argument of perigee: 145.3939°
revolutions per day: 15.06458923
mean anomaly at epoch: 215.8375°
orbit number at epoch: 34803

The dashed part of the orbit path shows where the satellite is in the earth's shadow,  

DLR